Regional Weather Roundup
Issued by NWS State College, PA

Home | Current Version | Previous Version | Graphics & Text | Print | Product List | Glossary Off
Versions: 1 2 3 4 5 6 7 8 9 10 11 12 13 14 15 16 17 18 19 20 21 22 23 24 25 26 27 28 29 30 31 32 33 34 35 36 37 38 39 40 41 42 43 44 45 46 47 48 49 50

000
ASUS41 KCTP 180203
RWRCTP

REGIONAL WEATHER ROUNDUP
NATIONAL WEATHER SERVICE STATE COLLEGE PA
900 PM EST TUE JAN 17 2017

Note: "fair" indicates few or no clouds below 12,000 feet with no
significant weather and/or obstructions to visibility.

* = STATION THAT DOES NOT REPORT PRECIPITATION /E.G. RAIN...SNOW...ETC/
    THUNDER OR FOG.

PAZ002>004-007>009-013>016-020>023-029>032-180300-
WESTERN PENNSYLVANIA

CITY           SKY/WX    TMP DP  RH WIND       PRES   REMARKS
ERIE           LGT RAIN  43  41  93 W13G22    29.86R FOG
MEADVILLE      CLOUDY    46  43  89 W13       29.84S FOG
FRANKLIN*        N/A     48  43  81 W7        29.86S
NEW CASTLE     CLOUDY    52  46  80 W12       29.88R
BEAVER COUNTY  CLOUDY    52  45  76 W9        29.88R
BUTLER*        CLOUDY    52  46  82 W5        29.90R
PITTSBURGH INT CLOUDY    55  48  77 W8        29.87R
PITTSBURGH     CLOUDY    56  45  66 W14G21    29.87R
INDIANA*       CLOUDY    50  50 100 W3        29.89S
LATROBE        PTCLDY    54  54 100 SW8       29.89R
WASHINGTON CO* NOT AVBL
$$

PAZ004>006-010>012-017>019-024>028-033>037-041-042-045-046-049>053-180300-
CENTRAL PENNSYLVANIA

CITY           SKY/WX    TMP DP  RH WIND       PRES   REMARKS
BRADFORD       CLOUDY    47  47 100 SW6       29.81S
DUBOIS         MOCLDY    50  46  86 W13       29.83S
CLEARFIELD     CLOUDY    38  38 100 NE8       29.86F FOG
JOHNSTOWN      CLOUDY    54  51  90 W16       29.86S
ALTOONA        FOG       37  36  96 CALM      29.89R VSB 1/4
STATE COLLEGE  LGT RAIN  34  34 100 CALM      29.89F VSB 1/2
WILLIAMSPORT   LGT RAIN  40  36  86 E5        29.93F FOG
SELINSGROVE    CLOUDY    36  36 100 CALM      29.96F FOG
FT INDIANTOWN  CLOUDY    38  38 100 NE5       29.95F FOG
CAPITAL CITY   CLOUDY    40  38  93 E5        29.95F FOG
HARRISBURG     CLOUDY    40  40 100 CALM      29.94F FOG
YORK           CLOUDY    41  41 100 NE3       29.94R FOG
$$

PAZ038>040-043-044-047-048-054-055-060>062-067>071-180300-
EASTERN PENNSYLVANIA

CITY           SKY/WX    TMP DP  RH WIND       PRES   REMARKS
SCRANTON       RAIN      37  36  96 VRB3      29.96R FOG
MOUNT POCONO   FOG       31  31 100 E9        29.93F VSB 1/4
ALLENTOWN      CLOUDY    37  34  89 NE6       29.99F FOG
QUAKERTOWN*    CLOUDY    37  37 100 E3        29.98F
READING        FOG       38  36  92 N5        29.96F VSB 1
LANCASTER      CLOUDY    41  41 100 E5        29.94F FOG
COATESVILLE    FOG       41  41 100 E8        29.96F VSB<1/4
POTTSTOWN      CLOUDY    39  39 100 NE6       29.99S FOG
BLUE BELL      CLOUDY    41  41 100 CALM      29.97S
DOYLESTOWN     CLOUDY    40  39  97 NE3       29.98R FOG
WILLOW GROVE   NOT AVBL
NORTH PHILA    LGT RAIN  43  42  97 E5        30.01R FOG
PHILADELPHIA   CLOUDY    43  42  97 E6        29.99S FOG
$$



USA.gov is the U.S. government's official web portal to all federal, state and local government web resources and services.